Location: Chariton
(41.0140°N, 93.3060°W)
Time: 22:12:08
(UTC-06:00)

Hubble Space Telescope - Visible Passes

Search period start: 21 January 2018 00:00
Search period end: 31 January 2018 00:00
Orbit: 537 x 541 km, 28.5° (Epoch: 21 January)

Date Brightness Start Highest point End Pass type
(mag) Time Alt. Az. Time Alt. Az. Time Alt. Az.
23 Jan 3.5 19:34:20 10° S 19:34:20 10° S 19:34:20 10° S visible
24 Jan 3.2 19:23:23 10° SSW 19:24:44 12° S 19:24:44 12° S visible
25 Jan 3.1 19:12:41 10° SSW 19:14:37 13° S 19:15:07 13° SSE visible
26 Jan 3.1 19:02:07 10° SSW 19:04:14 14° S 19:05:31 12° SSE visible
27 Jan 3.2 18:51:38 10° SSW 18:53:50 14° S 18:55:56 10° SSE visible
28 Jan 3.2 18:41:14 10° SSW 18:43:27 14° S 18:45:41 10° SSE visible
29 Jan 3.2 18:30:53 10° SW 18:33:04 14° S 18:35:15 10° SSE visible
30 Jan 3.3 18:20:37 10° SW 18:22:41 13° S 18:24:44 10° SSE visible
